Weather History for Abingdon, VA

Change the Weather History Date:

Friday, October 28, 2011

  Actual Average (KTRI) Record (KTRI)
Temperature  
Mean Temperature 44 °F 53 °F  
Max Temperature 46 °F 66 °F 84 °F (1991)
Min Temperature 42 °F 40 °F 25 °F (1976)
Degree Days  
Heating Degree Days 21 12  
Month to date heating degree days 243  
Since 1 July heating degree days 296  
Cooling Degree Days 0 0  
Month to date cooling degree days 9  
Year to date cooling degree days 977  
Moisture  
Dew Point 42 °F    
Average Humidity 89    
Maximum Humidity 93    
Minimum Humidity 81    
Precipitation  
Precipitation 0.37 in 0.07 in 1.05 in (1973)
Month to date precipitation 1.87  
Year to date precipitation 34.31  
Snow  
Snow 0.00 in 0.00 in - ()
Month to date snowfall 0.1  
Since 1 July snowfall 0.1  
Since 1 September snowfall 0.1  
Snow Depth -    
Sea Level Pressure  
Sea Level Pressure 30.03 in    
Wind  
Wind Speed 7 mph (East)    
Max Wind Speed 16 mph    
Max Gust Speed 23 mph    
Visibility 9 miles    
Events Rain    
T = Trace of Precipitation, MM = Missing Value Source: NWS Daily Summary

Daily Weather History Graph

Daily Weather History Graph

Search for Another Location

Airport:

Trip Planner

Search our weather history database for the weather conditions in past years. The results will help you decide how hot, cold, wet, or windy it might be!

Date:

Astronomy

Oct. 28, 2011 Rise Set
Actual Time 7:47 AM EDT 6:35 PM EDT
Civil Twilight 7:20 AM EDT 7:02 PM EDT
Nautical Twilight 6:50 AM EDT 7:32 PM EDT
Astronomical Twilight 6:20 AM EDT 8:02 PM EDT
Moon 9:57 AM EDT (10/28) 8:02 PM EDT (10/28)
Length of Visible Light 11h 41m
Length of Day
10h 48m
Waxing Crescent, 5% of the Moon is Illuminated
Oct 28
Waxing Crescent
Nov 2
First Quarter
Nov 10
Full
Nov 18
Last Quarter
Nov 25
New

Hourly Weather History & Observations

Time (EDT) Temp. Windchill Dew Point Humidity Pressure Visibility Wind Dir Wind Speed Gust Speed Precip Events Conditions
12:15 AM 46.4 °F - 42.8 °F 87% 30.03 in 10.0 mi Calm Calm - N/A   Overcast
12:55 AM 46.4 °F 45.2 °F 42.8 °F 87% 30.04 in 10.0 mi ENE 3.5 mph - N/A   Overcast
1:15 AM 46.4 °F 44.3 °F 41.0 °F 81% 30.04 in 10.0 mi ENE 4.6 mph - N/A   Overcast
1:35 AM 46.4 °F 41.9 °F 41.0 °F 81% 30.04 in 10.0 mi ENE 9.2 mph - N/A   Overcast
1:55 AM 44.6 °F 40.7 °F 42.8 °F 93% 30.04 in 10.0 mi NE 6.9 mph - N/A   Overcast
2:15 AM 44.6 °F 42.2 °F 42.8 °F 93% 30.04 in 10.0 mi ENE 4.6 mph - N/A   Overcast
2:35 AM 44.6 °F 41.4 °F 42.8 °F 93% 30.04 in 10.0 mi ENE 5.8 mph - N/A   Overcast
2:55 AM 44.6 °F 43.1 °F 42.8 °F 93% 30.03 in 10.0 mi NE 3.5 mph - N/A   Overcast
3:15 AM 44.6 °F 43.1 °F 42.8 °F 93% 30.03 in 10.0 mi NE 3.5 mph - N/A   Overcast
3:35 AM 44.6 °F 41.4 °F 42.8 °F 93% 30.02 in 10.0 mi East 5.8 mph - N/A   Overcast
4:15 AM 44.6 °F 40.7 °F 41.0 °F 87% 30.02 in 10.0 mi NE 6.9 mph - N/A   Overcast
4:35 AM 44.6 °F 43.1 °F 41.0 °F 87% 30.02 in 10.0 mi NE 3.5 mph - N/A   Overcast
4:55 AM 44.6 °F 40.7 °F 41.0 °F 87% 30.02 in 10.0 mi ENE 6.9 mph - N/A   Overcast
5:15 AM 44.6 °F 41.4 °F 41.0 °F 87% 30.03 in 10.0 mi ENE 5.8 mph - N/A   Overcast
5:35 AM 44.6 °F 42.2 °F 41.0 °F 87% 30.04 in 10.0 mi ENE 4.6 mph - N/A   Overcast
6:15 AM 44.6 °F 42.2 °F 41.0 °F 87% 30.04 in 10.0 mi ENE 4.6 mph - N/A   Overcast
6:35 AM 44.6 °F 40.7 °F 41.0 °F 87% 30.03 in 10.0 mi ENE 6.9 mph - N/A   Overcast
6:55 AM 44.6 °F 39.7 °F 41.0 °F 87% 30.03 in 10.0 mi East 9.2 mph - N/A   Overcast
7:15 AM 44.6 °F 40.2 °F 41.0 °F 87% 30.04 in 10.0 mi East 8.1 mph - N/A   Overcast
7:35 AM 44.6 °F 40.7 °F 41.0 °F 87% 30.04 in 10.0 mi East 6.9 mph - N/A   Overcast
7:55 AM 44.6 °F 38.8 °F 41.0 °F 87% 30.04 in 10.0 mi East 11.5 mph - N/A   Overcast
8:15 AM 44.6 °F 39.7 °F 41.0 °F 87% 30.04 in 10.0 mi East 9.2 mph - N/A Rain Light Rain
8:35 AM 44.6 °F 38.8 °F 41.0 °F 87% 30.03 in 10.0 mi East 11.5 mph - 0.01 in   Light Drizzle
8:55 AM 44.6 °F 38.4 °F 42.8 °F 93% 30.04 in 10.0 mi East 12.7 mph 17.3 mph 0.01 in   Light Drizzle
9:15 AM 44.6 °F 38.1 °F 42.8 °F 93% 30.03 in 10.0 mi East 13.8 mph - N/A Rain Light Rain
9:55 AM 44.6 °F 38.4 °F 41.0 °F 87% 30.03 in 10.0 mi East 12.7 mph 18.4 mph 0.01 in   Light Drizzle
10:15 AM 44.6 °F 39.2 °F 41.0 °F 87% 30.03 in 10.0 mi East 10.4 mph 18.4 mph N/A   Light Drizzle
10:35 AM 44.6 °F 38.4 °F 41.0 °F 87% 30.03 in 10.0 mi East 12.7 mph 17.3 mph N/A   Light Drizzle
10:55 AM 44.6 °F 39.2 °F 41.0 °F 87% 30.04 in 10.0 mi ENE 10.4 mph - 0.01 in Rain Rain
11:15 AM 44.6 °F 39.2 °F 42.8 °F 93% 30.04 in 7.0 mi ENE 10.4 mph - 0.02 in Rain Light Rain
11:35 AM 44.6 °F 40.2 °F 42.8 °F 93% 30.06 in 10.0 mi NE 8.1 mph 16.1 mph 0.04 in Rain Light Rain
11:55 AM 44.6 °F 39.2 °F 42.8 °F 93% 30.06 in 7.0 mi East 10.4 mph - 0.08 in Rain Rain
12:15 PM 44.6 °F 39.7 °F 42.8 °F 93% 30.06 in 7.0 mi ENE 9.2 mph - 0.03 in Rain Rain
12:35 PM 44.6 °F 38.8 °F 42.8 °F 93% 30.06 in 7.0 mi East 11.5 mph - 0.07 in Rain Rain
12:55 PM 44.6 °F 38.4 °F 42.8 °F 93% 30.05 in 7.0 mi East 12.7 mph - 0.10 in Rain Rain
1:15 PM 46.4 °F 40.7 °F 44.6 °F 93% 30.03 in 7.0 mi East 12.7 mph - 0.03 in Rain Light Rain
1:35 PM 46.4 °F 41.1 °F 44.6 °F 93% 30.02 in 7.0 mi East 11.5 mph - 0.04 in Rain Light Rain
1:55 PM 46.4 °F 40.7 °F 44.6 °F 93% 30.02 in 7.0 mi East 12.7 mph - 0.07 in Rain Light Rain
2:15 PM 46.4 °F 40.7 °F 44.6 °F 93% 30.01 in 4.0 mi ESE 12.7 mph - 0.01 in Rain Light Rain
2:35 PM 46.4 °F 40.1 °F 42.8 °F 87% 30.00 in 7.0 mi ESE 15.0 mph 19.6 mph 0.03 in Rain Light Rain
2:55 PM 46.4 °F 40.7 °F 42.8 °F 87% 29.99 in 10.0 mi ESE 12.7 mph 18.4 mph 0.03 in   Light Drizzle
3:15 PM 44.6 °F 37.4 °F 42.8 °F 93% 29.99 in 7.0 mi ESE 16.1 mph 23.0 mph 0.01 in Rain Light Rain
3:35 PM 44.6 °F 37.8 °F 42.8 °F 93% 29.98 in 10.0 mi East 15.0 mph 21.9 mph 0.02 in Rain Light Rain
3:55 PM 44.6 °F 38.1 °F 41.0 °F 87% 29.98 in 10.0 mi East 13.8 mph - 0.03 in Rain Light Rain
4:15 PM 44.6 °F 38.1 °F 41.0 °F 87% 29.98 in 10.0 mi East 13.8 mph 18.4 mph 0.01 in Rain Rain
4:35 PM 42.8 °F 35.1 °F 39.2 °F 87% 29.97 in 10.0 mi East 16.1 mph 23.0 mph 0.02 in Rain Light Rain
4:55 PM 42.8 °F 35.4 °F 39.2 °F 87% 29.97 in 10.0 mi East 15.0 mph 19.6 mph 0.02 in Rain Rain
5:15 PM 42.8 °F 35.1 °F 39.2 °F 87% 29.97 in 7.0 mi East 16.1 mph 23.0 mph 0.01 in Rain Light Rain
5:35 PM 42.8 °F 35.1 °F 37.4 °F 81% 29.96 in 10.0 mi East 16.1 mph 21.9 mph 0.01 in   Overcast
5:55 PM 41.0 °F 33.1 °F 37.4 °F 87% 29.96 in 10.0 mi East 15.0 mph - 0.01 in   Light Drizzle
6:15 PM 41.0 °F 34.7 °F 37.4 °F 87% 29.97 in 5.0 mi East 10.4 mph 18.4 mph 0.01 in   Drizzle
6:35 PM 41.0 °F 34.7 °F 37.4 °F 87% 29.97 in 10.0 mi ENE 10.4 mph - 0.03 in Rain Light Rain
6:55 PM 41.0 °F 35.2 °F 37.4 °F 87% 29.97 in 7.0 mi East 9.2 mph 18.4 mph 0.04 in Rain Rain
7:15 PM 41.0 °F 34.7 °F 37.4 °F 87% 29.98 in 10.0 mi East 10.4 mph 16.1 mph N/A   Drizzle
7:35 PM 41.0 °F 34.7 °F 37.4 °F 87% 29.99 in 7.0 mi ENE 10.4 mph - 0.01 in   Drizzle
7:55 PM 41.0 °F 35.8 °F 37.4 °F 87% 30.00 in 7.0 mi ENE 8.1 mph - 0.02 in Rain Rain
8:15 PM 41.0 °F 34.3 °F 37.4 °F 87% 30.00 in 10.0 mi East 11.5 mph 18.4 mph 0.02 in Rain Light Rain
8:35 PM 41.0 °F 34.7 °F 37.4 °F 87% 29.99 in 5.0 mi ESE 10.4 mph - 0.04 in Rain Rain
8:55 PM 41.0 °F 34.3 °F 37.4 °F 87% 29.99 in 10.0 mi ESE 11.5 mph - 0.04 in Rain Light Rain
9:15 PM 41.0 °F 34.3 °F 37.4 °F 87% 29.99 in 10.0 mi East 11.5 mph - 0.01 in   Light Drizzle
9:35 PM 41.0 °F 34.7 °F 37.4 °F 87% 29.99 in 10.0 mi East 10.4 mph - 0.01 in   Overcast
9:55 PM 41.0 °F 34.3 °F 37.4 °F 87% 29.99 in 7.0 mi East 11.5 mph 16.1 mph 0.01 in Rain Light Rain
10:15 PM 41.0 °F 34.3 °F 37.4 °F 87% 29.99 in 10.0 mi East 11.5 mph - N/A Rain Light Rain
10:35 PM 41.0 °F 34.7 °F 37.4 °F 87% 29.99 in 10.0 mi East 10.4 mph - 0.01 in Rain Light Rain
10:55 PM 41.0 °F 34.3 °F 37.4 °F 87% 29.99 in 10.0 mi East 11.5 mph 16.1 mph 0.01 in   Overcast
11:15 PM 41.0 °F 34.7 °F 37.4 °F 87% 29.98 in 10.0 mi East 10.4 mph - N/A   Overcast
11:35 PM 41.0 °F 35.8 °F 37.4 °F 87% 29.98 in 10.0 mi East 8.1 mph - N/A Rain Light Rain
11:55 PM 41.0 °F 35.8 °F 37.4 °F 87% 29.97 in 10.0 mi East 8.1 mph - N/A   Overcast